(347926) = 1993 FQ62 = 2003 CH17

Discovered at Desert Eagle on 2003-02-07 by W. K. Y. Yeung.

Orbit

Orbit type: Main Belt

Note: WebGL enabled browser required.

epoch2024-03-31.0
epoch JD2460400.5
perihelion date2023-05-17.94123
perihelion JD2460082.44123
argument of perihelion (°)64.34817
ascending node (°)43.91754
inclination (°)4.32062
eccentricity0.2735811
perihelion distance (AU)2.1735672
Tisserand w.r.t. Jupiter3.2
ΔV w.r.t. Earth (km/sec)9.5
semimajor axis (AU)2.9921676
mean anomaly (°)60.56648
mean daily motion (°/day)0.19042540
aphelion distance (AU)3.811
period (years)5.18
P-vector [x]-0.31164717
P-vector [y]0.84254601
P-vector [z]0.43930884
Q-vector [x]-0.94875991
Q-vector [y]-0.30134709
Q-vector [z]-0.09510293
absolute magnitude16.41
phase slope0.15
uncertainty0
referenceMPEC 2024-F50
observations used350
oppositions12
arc length (days)11322
first opposition used1993
last opposition used2024
residual rms (arc-secs)0.68
perturbers coarse indicatorM-v
perturbers precise indicator003Ek
first observation date used1993-03-20.0
last observation date used2024-03-19.0
computer nameMPCLINUX
JD of orbit computation2456819.656535
perihelion JD uncertainty (days)1.8190E-04
argument of perihelion uncertainty (°)1.2817E-04
ascending node uncertainty (°)1.0621E-04
inclination uncertainty (°)5.0772E-06
eccentricity uncertainty 3.7302E-07
perihelion distance uncertainty (AU)1.1501E-06
Minimum Orbit Intersection Distances (in AU)
for orbit epoch: 2460400.5, reference: E2024-GH2
Mercury1.85627
Venus1.45545
Earth1.19495
Mars0.55519
Jupiter1.36868
Saturn6.23469
Uranus15.5855
Neptune26.4645

Observations

351 total observations over interval: 1993 03 19.32187 – 2024 03 19.517840
These data are available for download (format description).

Date (UT) J2000 RA J2000 Dec Magn Location Ref
1993 03 19.32187 13 08 22.24 -02 59 08.4 19.8   809 – European Southern Observatory, La Silla MPC 23625
1993 03 20.31424 13 07 35.42 -02 55 17.1 18.4   809 – European Southern Observatory, La Silla MPC 23625
1998 01 24.52017 12 21 40.28 +03 31 09.6 20.6 V 691 – Steward Observatory, Kitt Peak-Spacewatch MPS 80172
1998 01 24.53618 12 21 40.45 +03 31 09.3 20.7 V 691 – Steward Observatory, Kitt Peak-Spacewatch MPS 80172
1998 01 24.55172 12 21 40.63 +03 31 09.2 21.5 V 691 – Steward Observatory, Kitt Peak-Spacewatch MPS 80172
1998 02 28.48632 12 11 58.76 +04 53 43.6 19.5 V 691 – Steward Observatory, Kitt Peak-Spacewatch MPS 178395
1998 02 28.49093 12 11 58.43 +04 53 46.2 20.1 V 691 – Steward Observatory, Kitt Peak-Spacewatch MPS 178395
1998 02 28.49551 12 11 58.25 +04 53 46.7 20.4 V 691 – Steward Observatory, Kitt Peak-Spacewatch MPS 178395
2003 01 27.54669 11 06 16.64 +13 18 10.3 20.2   608 – Haleakala-AMOS MPS 73397
2003 01 27.55759 11 06 16.38 +13 18 12.9 20.3   608 – Haleakala-AMOS MPS 73397
2003 01 27.56825 11 06 16.13 +13 18 15.1 20.4   608 – Haleakala-AMOS MPS 73397
2003 02 01.40585 11 04 14.68 +13 37 13.3 19.4   704 – Lincoln Laboratory ETS, New Mexico MPS 73397
2003 02 01.42115 11 04 14.20 +13 37 17.5 19.8   704 – Lincoln Laboratory ETS, New Mexico MPS 73397
2003 02 01.43633 11 04 13.64 +13 37 22.4 19.9   704 – Lincoln Laboratory ETS, New Mexico MPS 73397
2003 02 01.45167 11 04 13.19 +13 37 25.5 19.2   704 – Lincoln Laboratory ETS, New Mexico MPS 73397
2003 02 07.34016 11 00 53.18 +14 03 18.5 20.5 R 333 – Desert Eagle Observatory MPS 73397
2003 02 07.36118 11 00 52.39 +14 03 23.7 19.8 R 333 – Desert Eagle Observatory MPS 73397
2003 02 07.38153 11 00 51.57 +14 03 29.5 19.4 R 333 – Desert Eagle Observatory MPS 73397
2003 02 07.40936 11 00 50.41 +14 03 37.4 19.4 R 333 – Desert Eagle Observatory MPS 73397
2003 02 09.37025 10 59 32.53 +14 12 39.5 19.2 R 333 – Desert Eagle Observatory MPS 73397
2003 02 09.39058 10 59 31.70 +14 12 45.5 20.6 R 333 – Desert Eagle Observatory MPS 468630
2003 02 09.39389 10 59 31.54 +14 12 46.1 20.2 R 333 – Desert Eagle Observatory MPS 73397
2003 02 21.29491 10 50 13.38 +15 07 34.9 18.6   644 – Palomar Mountain/NEAT MPS 74365
2003 02 21.36302 10 50 09.74 +15 07 53.0 18.7   644 – Palomar Mountain/NEAT MPS 74365
2003 02 21.42503 10 50 06.44 +15 08 09.0 19.6   644 – Palomar Mountain/NEAT MPS 74365
2003 02 28.30150 10 44 08.99 +15 36 07.6 19.0   704 – Lincoln Laboratory ETS, New Mexico MPS 74365
2003 02 28.31465 10 44 08.34 +15 36 09.4 19.2   704 – Lincoln Laboratory ETS, New Mexico MPS 74366
2003 02 28.32963 10 44 07.50 +15 36 13.4 19.3   704 – Lincoln Laboratory ETS, New Mexico MPS 74366
2003 02 28.34382 10 44 06.76 +15 36 17.0 19.3   704 – Lincoln Laboratory ETS, New Mexico MPS 74366
2003 02 28.35855 10 44 05.95 +15 36 20.0 19.7   704 – Lincoln Laboratory ETS, New Mexico MPS 74366
2003 03 06.30429 10 39 01.76 +15 55 58.3 18.5   704 – Lincoln Laboratory ETS, New Mexico MPS 74366
2003 03 06.31769 10 39 01.07 +15 56 00.9 19.0   704 – Lincoln Laboratory ETS, New Mexico MPS 74366
2003 03 06.33110 10 39 00.27 +15 56 02.7 18.9   704 – Lincoln Laboratory ETS, New Mexico MPS 74366
2003 03 06.34466 10 38 59.61 +15 56 05.8 20.0   704 – Lincoln Laboratory ETS, New Mexico MPS 74366
2003 03 07.18168 10 38 18.53 +15 58 26.9 18.8 R 699 – Lowell Observatory-LONEOS MPS 74366
2003 03 07.19769 10 38 17.85 +15 58 29.1   699 – Lowell Observatory-LONEOS MPS 74366
2003 03 07.21366 10 38 17.03 +15 58 31.2   699 – Lowell Observatory-LONEOS MPS 74366
2003 03 07.22968 10 38 16.18 +15 58 34.3   699 – Lowell Observatory-LONEOS MPS 74366
2003 03 08.39066 10 37 19.26 +16 01 38.5 18.8   644 – Palomar Mountain/NEAT MPS 74366
2003 03 08.40133 10 37 18.74 +16 01 39.9 19.2   644 – Palomar Mountain/NEAT MPS 74366
2003 03 08.41203 10 37 18.19 +16 01 41.7 19.4   644 – Palomar Mountain/NEAT MPS 74366
2007 12 18.41950 09 30 50.72 +21 24 39.0 19.4 V G96 – Mt. Lemmon Survey MPS 231752
2007 12 18.42750 09 30 50.86 +21 24 39.9 19.4 V G96 – Mt. Lemmon Survey MPS 231752
2007 12 18.43560 09 30 50.97 +21 24 40.9 19.5 V G96 – Mt. Lemmon Survey MPS 231752
2007 12 18.44353 09 30 51.12 +21 24 41.9 19.4 V G96 – Mt. Lemmon Survey MPS 231752
2008 01 01.47876 09 31 51.92 +22 05 10.8 19.4 V 691 – Steward Observatory, Kitt Peak-Spacewatch MPS 232580
2008 01 01.49989 09 31 51.62 +22 05 15.2 19.3 V 691 – Steward Observatory, Kitt Peak-Spacewatch MPS 232580
2008 01 01.52101 09 31 51.38 +22 05 20.0 19.5 V 691 – Steward Observatory, Kitt Peak-Spacewatch MPS 232580
2008 01 10.33031 09 29 02.06 +22 42 39.2 18.8   704 – Lincoln Laboratory ETS, New Mexico MPS 233349
2008 01 10.34305 09 29 01.70 +22 42 43.5 19.4   704 – Lincoln Laboratory ETS, New Mexico MPS 233349
2008 01 10.35578 09 29 01.23 +22 42 46.1 19.4   704 – Lincoln Laboratory ETS, New Mexico MPS 233349
2008 01 10.36858 09 29 00.82 +22 42 49.2 19.5   704 – Lincoln Laboratory ETS, New Mexico MPS 233349
2008 01 30.34018 09 14 55.05 +24 15 09.3 18.9   704 – Lincoln Laboratory ETS, New Mexico MPS 235303
2008 01 30.35264 09 14 54.36 +24 15 12.1 19.1   704 – Lincoln Laboratory ETS, New Mexico MPS 235303
2008 01 30.36525 09 14 53.69 +24 15 14.8 18.8   704 – Lincoln Laboratory ETS, New Mexico MPS 235303
2008 01 30.37771 09 14 53.01 +24 15 18.0 18.8   704 – Lincoln Laboratory ETS, New Mexico MPS 235303
2008 01 30.39129 09 14 52.27 +24 15 21.7 18.5   704 – Lincoln Laboratory ETS, New Mexico MPS 235303
2008 02 03.29856 09 11 26.52 +24 30 27.8 18.9 V G96 – Mt. Lemmon Survey MPS 236183
2008 02 03.30531 09 11 26.16 +24 30 29.4 18.8 V G96 – Mt. Lemmon Survey MPS 236183
2008 02 03.31212 09 11 25.76 +24 30 30.7 18.7 V G96 – Mt. Lemmon Survey MPS 236183
2008 02 03.31884 09 11 25.40 +24 30 32.3 18.6 V G96 – Mt. Lemmon Survey MPS 236183
2008 02 04.60667 09 10 17.27 +24 35 05.1 19.2 R D29 – Purple Mountain Observatory, XuYi Station MPS 236183
2008 02 04.62272 09 10 16.41 +24 35 08.6 19.0 R D29 – Purple Mountain Observatory, XuYi Station MPS 236183
2008 02 04.63805 09 10 15.55 +24 35 11.9 18.6 R D29 – Purple Mountain Observatory, XuYi Station MPS 236183
2008 02 04.65261 09 10 14.70 +24 35 15.0 18.8 R D29 – Purple Mountain Observatory, XuYi Station MPS 236183
2008 02 06.23146 09 08 51.36 +24 40 29.3 18.8 r 699 – Lowell Observatory-LONEOS MPS 236183
2008 02 06.25523 09 08 50.04 +24 40 33.4 19.2 r 699 – Lowell Observatory-LONEOS MPS 236183
2008 02 06.27899 09 08 48.74 +24 40 38.3 19.1 r 699 – Lowell Observatory-LONEOS MPS 236183
2008 02 06.28240 09 08 48.55 +24 40 39.1 19.7   704 – Lincoln Laboratory ETS, New Mexico MPS 236183
2008 02 06.29469 09 08 47.84 +24 40 42.1 19.4   704 – Lincoln Laboratory ETS, New Mexico MPS 236183
2008 02 06.30277 09 08 47.39 +24 40 42.8 18.8 r 699 – Lowell Observatory-LONEOS MPS 236183
2008 02 06.30697 09 08 47.14 +24 40 44.8 19.3   704 – Lincoln Laboratory ETS, New Mexico MPS 236183
2008 02 06.31923 09 08 46.46 +24 40 46.9 19.4   704 – Lincoln Laboratory ETS, New Mexico MPS 236183
2008 02 06.33152 09 08 45.81 +24 40 49.0 19.3   704 – Lincoln Laboratory ETS, New Mexico MPS 236183
2008 02 10.33451 09 05 17.77 +24 52 18.7 18.7 V G96 – Mt. Lemmon Survey MPS 237452
2008 02 10.34608 09 05 17.16 +24 52 20.2 18.8 V G96 – Mt. Lemmon Survey MPS 237452
2008 02 10.35763 09 05 16.54 +24 52 21.9 18.9 V G96 – Mt. Lemmon Survey MPS 237452
2008 02 10.36919 09 05 15.90 +24 52 23.5 19.1 V G96 – Mt. Lemmon Survey MPS 237452
2008 02 13.21344 09 02 54.47 +24 58 54.4 19.3   704 – Lincoln Laboratory ETS, New Mexico MPS 237452
2008 02 13.22535 09 02 53.90 +24 58 56.1 19.2 C 704 – Lincoln Laboratory ETS, New Mexico MPS 287952
2008 02 13.23736 09 02 53.27 +24 58 57.4 19.3   704 – Lincoln Laboratory ETS, New Mexico MPS 237452
2008 02 13.24939 09 02 52.68 +24 58 59.2 19.3   704 – Lincoln Laboratory ETS, New Mexico MPS 237452
2008 02 13.26131 09 02 52.05 +24 59 00.8 19.2   704 – Lincoln Laboratory ETS, New Mexico MPS 237452
2008 02 27.18396 08 53 33.00 +25 09 39.3 19.2 V 703 – Catalina Sky Survey MPS 239366
2008 02 27.19117 08 53 32.60 +25 09 39.6 18.6 V 703 – Catalina Sky Survey MPS 239366
2008 02 27.19838 08 53 32.42 +25 09 39.6 18.7 V 703 – Catalina Sky Survey MPS 239366
